KINDAKUN POINT, BC current weather conditions

sailwx.info

Wind from 200 at 8 knots

Air temperature 14.0° C

Last reported at 2014-Jul-30 09:00 UTC.
Time now 2014-Jul-30 11:07 UTC

Location: N 53°19' W 132°46'.
View on Google Maps.

See reports from other nearby stations

  
Tides and Currents Weather Stations Pressure Air Temp Water Temp Dewpoint Dewpoint Depression Visibility Wind Speed Wind Dir Waves Ship Positions
date/time (UTC)wind fromknots sea level pressurealtimeterstation pressurevisibilityair tempwater tempwave heightnotes
2014-Jul-30 10:00 230 9 14.0
2014-Jul-30 09:00 200 8 14.0
2014-Jul-30 08:00 210 8 15.0
2014-Jul-30 07:00 230 10 gusting 16 14.0
2014-Jul-30 06:00 200 11 15.0
2014-Jul-30 05:00 180 12 15.0
2014-Jul-30 04:00 180 13 15.0
2014-Jul-30 03:00 180 13 15.0
2014-Jul-30 02:00 190 14 15.0
2014-Jul-30 01:00 190 15 15.0
2014-Jul-30 00:00 200 15 15.0
2014-Jul-29 23:00 180 15 15.0
2014-Jul-29 22:00 180 15 15.0
2014-Jul-29 21:00 170 13 15.0
2014-Jul-29 20:00 170 14 15.0
2014-Jul-29 19:00 200 11 15.0
2014-Jul-29 18:00 180 5 14.0
2014-Jul-29 17:00 150 4 13.0
2014-Jul-29 16:00 310 2 14.0
2014-Jul-29 15:00 300 11 13.0
2014-Jul-29 14:00 280 6 13.0
2014-Jul-29 13:00 310 4 14.0
2014-Jul-29 12:00 230 5 14.0
2014-Jul-29 11:00 170 16 14.0
2014-Jul-29 10:00 020 3 14.0
2014-Jul-29 09:00 010 4 14.0
2014-Jul-29 08:00 360 6 14.0
2014-Jul-29 07:00 020 6 14.0
2014-Jul-29 06:00 020 5 14.0
2014-Jul-29 05:00 020 5 14.0
2014-Jul-29 04:00 030 5 14.0
2014-Jul-29 03:00 170 3 14.0
2014-Jul-29 02:00 180 6 14.0
2014-Jul-29 01:00 170 9 14.0
2014-Jul-29 00:00 190 11 14.0
2014-Jul-28 23:00 180 17 14.0
2014-Jul-28 22:00 220 13 gusting 22 13.0
2014-Jul-28 21:00 170 25 gusting 30 15.0
2014-Jul-28 20:00 170 24 gusting 33 15.0
2014-Jul-28 19:00 140 7 14.0
2014-Jul-28 18:00 130 2 14.0
2014-Jul-28 17:00 130 5 14.0
2014-Jul-28 16:00 150 9 14.0
2014-Jul-28 15:00 170 8 15.0
2014-Jul-28 14:00 140 10 14.0
2014-Jul-28 13:00 160 8 14.0
2014-Jul-28 12:00 140 6 14.0
2014-Jul-28 11:00 150 9 14.0